Skip Page Navigation
NASA JPL Caltech
NASA Logo - Jet Propulsion Laboratory + View the NASA Portal
+ Near-Earth Object (NEO) Program
Search JPL
JPL Home Earth Solar System Stars & Galaxies Technology
JPL Solar System Dynamics
BODIES ORBITS EPHEMERIDES TOOLS PHYSICAL DATA DISCOVERY FAQ SITE MAP
JPL Small-Body Database Browser
Search: [ help ]  
(2001 HZ7)
Classification: Apollo [NEO, PHA]          SPK-ID: 3074757
Ephemeris | Orbit Diagram | Orbital Elements | Physical Parameters | Close-Approach Data ]

[ hide orbit diagram ]
Orbit Diagram
Note: Make sure you have Java enabled on your browser to see the applet. This applet is provided as a 3D orbit visualization tool. The applet was implemented using 2-body methods, and hence should not be used for determining accurate long-term trajectories (over several years or decades) or planetary encounter circumstances. For accurate long-term ephemerides, please instead use our Horizons system.
Orbit Viewer

Additional Notes: the orbits shown in the applet are color coded. The planets are white lines, and the asteroid/comet is a blue line. The bright white line indicates the portion of the orbit that is above the ecliptic plane, and the darker portion is below the ecliptic plane. Likewise for the asteroid/comet orbit, the light blue indicates the portion above the ecliptic plane, and the dark blue the portion below the ecliptic plane.

Orbit Viewer applet originally written and kindly provided by Osamu Ajiki (AstroArts), and further modified by Ron Baalke (JPL).


Orbital Elements at Epoch 2456400.5 (2013-Apr-18.0) TDB
Reference: JPL 37 (heliocentric ecliptic J2000)
 Element Value Uncertainty (1-sigma)   Units 
e .4981931168223084 2.0356e-07  
a 1.468497141743106 3.486e-08 AU
q .7369019736534567 3.1419e-07 AU
i 5.419867803981994 2.1054e-05 deg
node 156.42094386845 0.00018448 deg
peri 312.6707523183254 0.00021524 deg
M 308.1264423132578 0.00011204 deg
tp 2456494.159453428480
(2013-Jul-20.65945343)
0.00020535 JED
period 649.9921103901909
1.78
2.3145e-05
6.337e-08
d
yr
n .5538528764355181 1.9721e-08 deg/d
Q 2.200092309832755 5.2226e-08 AU
  Orbit Determination Parameters
   # obs. used (total)      103  
   data-arc span      3334 days (9.13 yr)  
   first obs. used      2001-04-21  
   last obs. used      2010-06-07  
   planetary ephem.      DE405  
   SB-pert. ephem.      SB405-CPV-2  
   condition code      0  
   fit RMS      .45583  
   data source      ORB  
   producer      Otto Matic  
   solution date      2011-Sep-14 19:40:52  

Additional Information
 Earth MOID = .0465442 AU 
 T_jup = 4.460 
[ show covariance matrix ]

Ephemeris | Orbit Diagram | Orbital Elements | Physical Parameters | Close-Approach Data ]

Physical Parameter Table
Parameter Symbol Value Units Sigma Reference Notes
absolute magnitude H 19.586 mag .68435 37 autocmod 2.5a

[ show close-approach data ]
Ephemeris | Orbit Diagram | Orbital Elements | Physical Parameters | Close-Approach Data ]
ABOUT SSD CREDITS/AWARDS PRIVACY/COPYRIGHT GLOSSARY LINKS
FirstGov 2013-May-24 18:15 UT
(server date/time)  
NASA Home Page
Site Manager:   Donald K. Yeomans
Webmaster  Alan B. Chamberlin